Back to catalog

CZ-1 DEB

AliveLEO
NORAD 25882·DEBRIS·🇨🇳 China

Launched Apr 24, 1970 from Jiuquan Satellite Launch Center

Loading…

Next Passes (next 24 hours)

TLE

FreshSource: Space-Track

Epoch: Sep 14, 2026, 10:23 UTC

1 25882U 70034D   26257.43279472  .00002820  00000-0  28601-3 0  9991
2 25882  68.3717 161.1226 0660386 307.4215  46.8500 13.98184537335451

Track CZ-1 DEB in real time with AllMySat

Download on the App Store